Location: Winthrop
(48.4780°N, 120.1850°W)
Time: 02:43:41
(UTC-08:00)

Transit 2A - All Passes

Search period start: 31 January 2023 00:00
Search period end: 10 February 2023 00:00
Orbit: 594 x 962 km, 66.7° (Epoch: 30 January)

Date Brightness Start Highest point End Pass type
(mag) Time Alt. Az. Time Alt. Az. Time Alt. Az.
31 Jan - 00:19:53 10° NNW 00:24:27 23° NNE 00:29:16 10° E night (unlit)
31 Jan - 02:02:39 10° NNW 02:08:40 71° NE 02:15:00 10° SE night (unlit)
31 Jan - 03:46:31 10° NW 03:51:30 26° WSW 03:56:38 10° SSW night (unlit)
31 Jan - 16:47:40 10° SSE 16:51:23 23° ESE 16:55:23 10° ENE daylight
31 Jan - 18:29:10 10° SW 18:34:01 62° NW 18:39:27 10° NNE visible
31 Jan - 20:14:45 10° WNW 20:18:25 19° NNW 20:22:20 10° NNE visible
31 Jan - 22:01:47 10° NNW 22:04:00 12° N 22:06:16 10° NNE visible
31 Jan - 23:45:27 10° NNW 23:49:35 19° NNE 23:53:54 10° ENE night (unlit)
01 Feb - 01:28:12 10° NNW 01:34:04 55° NE 01:40:17 10° SE night (unlit)
01 Feb - 03:11:40 10° NW 03:17:11 36° WSW 03:22:52 10° S night (unlit)
01 Feb - 16:14:20 10° SE 16:17:10 16° ESE 16:20:09 10° ENE daylight
01 Feb - 17:54:35 10° SW 17:59:27 84° NW 18:04:56 10° NE visible
01 Feb - 19:39:31 10° W 19:43:32 22° NNW 19:47:54 10° NNE visible
01 Feb - 21:26:41 10° NNW 21:28:58 12° N 21:31:20 10° NNE visible
01 Feb - 23:11:00 10° NNW 23:14:40 17° NNE 23:18:29 10° ENE night (unlit)
02 Feb - 00:53:44 10° NNW 00:59:26 43° NE 01:05:24 10° ESE night (unlit)
02 Feb - 02:36:58 10° NW 02:42:48 49° WSW 02:48:51 10° S night (unlit)
02 Feb - 15:42:32 10° ESE 15:43:01 10° E 15:43:31 10° E daylight
02 Feb - 17:20:09 10° SSW 17:24:57 70° ESE 17:30:22 10° NE daylight
02 Feb - 19:04:22 10° W 19:08:43 27° NW 19:13:27 10° NNE visible
02 Feb - 20:51:24 10° NW 20:53:57 13° N 20:56:35 10° NNE visible
02 Feb - 22:36:30 10° NNW 22:39:42 15° NNE 22:43:02 10° NE visible
03 Feb - 00:19:18 10° NNW 00:24:43 34° NE 00:30:24 10° ESE night (unlit)
03 Feb - 02:02:20 10° NW 02:08:21 65° WSW 02:14:38 10° SSE night (unlit)
03 Feb - 03:47:55 10° WNW 03:50:36 13° WSW 03:53:17 10° SW night (unlit)
03 Feb - 16:45:54 10° S 16:50:33 49° ESE 16:55:44 10° NE daylight
03 Feb - 18:29:21 10° WSW 18:33:56 34° NW 18:39:01 10° NNE visible
03 Feb - 20:16:02 10° NW 20:18:57 14° NNW 20:22:00 10° NNE visible
03 Feb - 22:01:55 10° NNW 22:04:42 13° NNE 22:07:36 10° NE visible
03 Feb - 23:44:52 10° NNW 23:49:56 28° NE 23:55:16 10° E night (unlit)
04 Feb - 01:27:45 10° NW 01:33:52 86° WSW 01:40:14 10° SSE night (unlit)
04 Feb - 03:12:17 10° WNW 03:16:23 19° WSW 03:20:33 10° SSW night (unlit)
04 Feb - 16:11:51 10° S 16:16:12 34° ESE 16:20:59 10° NE daylight
04 Feb - 17:54:27 10° WSW 17:59:14 45° NW 18:04:34 10° NNE visible
04 Feb - 19:40:40 10° WNW 19:43:58 16° NNW 19:47:28 10° NNE visible
04 Feb - 21:27:12 10° NNW 21:29:41 13° N 21:32:15 10° NNE visible
04 Feb - 23:10:26 10° NNW 23:15:08 23° NNE 23:20:01 10° E visible
05 Feb - 00:53:15 10° NNW 00:59:19 74° NE 01:05:40 10° SE night (unlit)
05 Feb - 02:37:10 10° NW 02:42:07 26° WSW 02:47:10 10° SSW night (unlit)
05 Feb - 15:38:03 10° SSE 15:41:55 24° ESE 15:46:06 10° NE daylight
05 Feb - 17:19:42 10° SW 17:24:36 60° NW 17:30:05 10° NNE daylight
05 Feb - 19:05:20 10° WNW 19:09:02 19° NNW 19:12:59 10° NNE visible
05 Feb - 20:52:19 10° NNW 20:54:39 12° N 20:57:03 10° NNE visible
05 Feb - 22:36:00 10° NNW 22:40:15 20° NNE 22:44:41 10° ENE visible
06 Feb - 00:18:45 10° NNW 00:24:43 57° NE 00:30:57 10° SE night (unlit)
06 Feb - 02:02:18 10° NW 02:07:47 35° WSW 02:13:26 10° S night (unlit)
06 Feb - 15:04:39 10° SE 15:07:42 17° ESE 15:10:55 10° ENE daylight
06 Feb - 16:45:05 10° SW 16:50:01 82° NW 16:55:34 10° NE daylight
06 Feb - 18:30:05 10° W 18:34:09 22° NNW 18:38:32 10° NNE visible
06 Feb - 20:17:13 10° NNW 20:19:36 13° N 20:22:04 10° NNE visible
06 Feb - 22:01:32 10° NNW 22:05:19 17° NNE 22:09:16 10° ENE visible
06 Feb - 23:44:17 10° NNW 23:50:03 44° NE 23:56:06 10° ESE night (unlit)
07 Feb - 01:27:33 10° NW 01:33:24 47° WSW 01:39:26 10° S night (unlit)
07 Feb - 14:32:13 10° ESE 14:33:32 11° E 14:34:52 10° E daylight
07 Feb - 16:10:38 10° SSW 16:15:31 73° ESE 16:21:00 10° NE daylight
07 Feb - 17:54:56 10° W 17:59:18 27° NW 18:04:06 10° NNE visible
07 Feb - 19:41:57 10° NW 19:44:34 13° N 19:47:18 10° NNE visible
07 Feb - 21:27:00 10° NNW 21:30:21 15° NNE 21:33:48 10° NE visible
07 Feb - 23:09:50 10° NNW 23:15:20 35° NE 23:21:06 10° ESE visible
08 Feb - 00:52:55 10° NW 00:58:58 63° WSW 01:05:14 10° SSE night (unlit)
08 Feb - 02:38:42 10° WNW 02:41:09 12° W 02:43:38 10° SW night (unlit)
08 Feb - 15:36:21 10° SSW 15:41:05 51° ESE 15:46:22 10° NE daylight
08 Feb - 17:19:54 10° WSW 17:24:32 34° NW 17:29:39 10° NNE daylight
08 Feb - 19:06:36 10° NW 19:09:33 14° NNW 19:12:39 10° NNE visible
08 Feb - 20:52:24 10° NNW 20:55:21 14° NNE 20:58:22 10° NE visible
08 Feb - 22:35:24 10° NNW 22:40:34 29° NE 22:45:58 10° E visible
09 Feb - 00:18:19 10° NW 00:24:28 84° WSW 00:30:51 10° SSE night (unlit)
09 Feb - 02:02:56 10° WNW 02:06:57 18° WSW 02:11:00 10° SW night (unlit)
09 Feb - 15:02:16 10° S 15:06:43 36° ESE 15:11:38 10° NE daylight
09 Feb - 16:44:58 10° WSW 16:49:48 44° NW 16:55:11 10° NNE daylight
09 Feb - 18:31:14 10° WNW 18:34:34 16° NNW 18:38:07 10° NNE visible
09 Feb - 20:17:41 10° NNW 20:20:19 13° N 20:23:00 10° NNE visible
09 Feb - 22:00:57 10° NNW 22:05:44 24° NNE 22:10:44 10° E visible
09 Feb - 23:43:47 10° NNW 23:49:54 76° NE 23:56:17 10° SE visible
